This demonstration page uses our WeatherBlox Daily Observations layout. Learn more.

36.17497, -115.13722

Hourly Observations for February 23, 2016

Temp ( °F °C ) Dew Point ( °F °C ) Humidity (%) Winds ( mph kmh ) Pressure ( in mb ) Visibility ( mi km ) Precip ( " mm )
12:53 am 00:53 Clear 55 12.8 19 -7.2 24 24 ENE 10 17 30.11 1020 10 16.0934 0 0
1:53 am 01:53 Clear 55 12.8 19 -7.2 24 24 NNE 14 22 30.13 1020 10 16.0934 0 0
2:53 am 02:53 Clear 53 11.7 19 -7.2 26 26 E 3 6 30.14 1021 10 16.0934 0 0
3:53 am 03:53 Clear 53 11.7 20 -6.7 27 27 N 8 13 30.16 1021 10 16.0934 0 0
4:53 am 04:53 Clear 51 10.6 20 -6.7 29 29 NE 7 11 30.18 1022 10 16.0934 0 0
5:53 am 05:53 Clear 50 10 19 -7.2 29 29 N 6 9 30.21 1023 10 16.0934 0 0
6:53 am 06:53 Sunny 50 10 19 -7.2 29 29 ENE 5 7 30.24 1024 10 16.0934 0 0
7:53 am 07:53 Sunny 52 11.1 18 -7.8 26 26 ENE 7 11 30.27 1025 10 16.0934 0 0
8:53 am 08:53 Sunny 54 12.2 14 -10 20 20 N 7 11 30.29 1026 10 16.0934 0 0
9:53 am 09:53 Sunny 56 13.3 13 -10.6 18 18 VRB 6 9 30.29 1026 10 16.0934 0 0
10:53 am 10:53 Sunny 58 14.4 10 -12.2 15 15 NE 9 15 30.28 1025 10 16.0934 0 0
11:53 am 11:53 Sunny 60 15.6 6 -14.4 11 11 ENE 12 19 30.25 1025 10 16.0934 0 0
12:53 pm 12:53 Sunny 59 15 5 -15 11 11 VRB 3 6 30.23 1024 10 16.0934 0 0
1:53 pm 13:53 Sunny 61 16.1 5 -15 10 10 VRB 3 6 30.22 1023 10 16.0934 0 0
2:53 pm 14:53 Sunny 63 17.2 6 -14.4 10 10 VRB 5 7 30.21 1023 10 16.0934 0 0
3:53 pm 15:53 Sunny 63 17.2 7 -13.9 11 11 NNE 6 9 30.21 1023 10 16.0934 0 0
4:53 pm 16:53 Sunny 61 16.1 10 -12.2 13 13 E 12 19 30.22 1023 10 16.0934 0 0
5:53 pm 17:53 Clear 59 15 11 -11.7 15 15 E 10 17 30.24 1024 10 16.0934 0 0
6:53 pm 18:53 Clear 58 14.4 12 -11.1 16 16 ENE 7 11 30.24 1024 10 16.0934 0 0
7:53 pm 19:53 Clear 56 13.3 10 -12.2 16 16 NNW 6 9 30.26 1025 10 16.0934 0 0
8:53 pm 20:53 Clear 54 12.2 12 -11.1 19 19 E 3 6 30.28 1026 10 16.0934 0 0
9:53 pm 21:53 Clear 51 10.6 13 -10.6 22 22 SSW 3 6 30.3 1026 10 16.0934 0 0
10:53 pm 22:53 Clear 51 10.6 14 -10 23 23 Calm 30.3 1026 10 16.0934 0 0
11:53 pm 23:53 Clear 48 8.9 17 -8.3 29 29 WNW 6 9 30.31 1026 10 16.0934 0 0

Powered by AerisWeather